Showing default

NOAA 5, 9057

Orbit data source: Space-Track

NOAA 5, 9057 is a payload satellite owned by NOAA (US) in SSO that was launched on Thu, 29 Jul 1976 UTC via a DELTA 2310 launch vehicle from the Air Force Western Test Range (AFWTR). Payload-class satellites include a variety of spacecraft equipped with specific instruments for various scientific and technological missions. These include communications satellites like Starlink; space stations such as the ISS; scientific satellites like the Hubble; Earth observation satellites from companies like Planet Labs, Umbra, and HawkEye 360; GPS; miniature CubeSats for education and research; and military/defense satellites.

Loading next visibility...
Identifier
9057, 1976-077A
Orbit
SSO
Country
Flag of USUS
Related business
Manufacturer
RCA/East Windsor
Mission
Non-operational spacecraft
Bus & Motor
TIROS M, Unknown motor
Mass
340 kg wet, 340 kg dry
Launch date (UTC)
1976-07-29 (50 years ago)
Launch vehicle
DELTA 2310
Launch site
Air Force Western Test Range (AFWTR)
Object type
Payload
Rocket body
Debris
Shape & HBR
Unknown
Radar Cross Section
Large (>1 m²)

Expand to show TLE details & history
Last TLE update: 1 day ago

TLE from 1 day ago
0 NOAA 5
1 09057U 76077A   26106.68910716 -.00000038  00000-0  64493-4 0  9993
2 09057 102.3002  92.4048 0010200  92.0577  81.3376 12.37829738246865
Epoch: 2026-04-16T16:32Z
TLE epoch observation values (Epoch: 2026-04-16T16:32:18.858Z)
Latitude
6.27113°
Longitude
-179.14056°
Altitude
1,516.553 km
Speed
7.108 km/s
True Right ascension
18h 15m 05s
True Declination
6° 14' 15"
Sunlit
Object was in daylight at epoch
Visualization orbit readout
Latitude
Unknown
Longitude
Unknown
Altitude
Unknown
Speed
Unknown
Apparent Right ascension
Unknown
Apparent Declination
Unknown
Sunlit
N/A
Visualization observer readout
Local Sidereal Time
01:28:58
Azimuth
Unknown
Elevation
Unknown
Doppler factor
Unknown
Orbital elements
Apogee altitude
1,521.462 km
Perigee altitude
1,505.363 km
Semi-major axis
7,891.549 km
Eccentricity
0.00102
Inclination
102.3002°
RAAN
92.4048°
Arg. of periapsis
92.0577°
True anomaly
81.45317°
Mean anomaly
81.3376°
Eccentric anomaly
81.39538°
Mean motion
3.09599 °/min
Orbital period
116.28 mins
BSTAR
0.000064493
Loading maneuver chart data...
Computing Atmospheric mass density...
Loading historical data...
Loading historical data...
Loading historical data...
Loading historical data...
Loading historical data...
Loading historical data...
Loading historical data...

Documentation

Showing up to 5 results
|